Weather History for Wheeling, WV

Change the Weather History Date:

Thursday, December 6, 2012

  Actual Average Record
Temperature  
Mean Temperature 35 °F 36 °F  
Max Temperature 46 °F 43 °F 65 °F (1951)
Min Temperature 23 °F 29 °F 8 °F (2007)
Degree Days  
Heating Degree Days 30 29  
Month to date heating degree days 103 170  
Since 1 July heating degree days 1328 1298  
Cooling Degree Days 0    
Month to date cooling degree days 0  
Year to date cooling degree days 996  
Moisture  
Dew Point 25 °F    
Average Humidity 63    
Maximum Humidity 81    
Minimum Humidity 45    
Precipitation  
Precipitation 0.00 in 0.08 in 0.53 in (2013)
Month to date precipitation 0.66 0.49  
Sea Level Pressure  
Sea Level Pressure 30.19 in    
Wind  
Wind Speed 4 mph (ESE)    
Max Wind Speed 10 mph    
Max Gust Speed 14 mph    
Visibility 10 miles    
Events      
T = Trace of Precipitation, MM = Missing Value Source: NWS Daily Summary

Daily Weather History Graph

Daily Weather History Graph

Search for Another Location

Airport:

Trip Planner

Search our weather history database for the weather conditions in past years. The results will help you decide how hot, cold, wet, or windy it might be!

Date:

Astronomy

Dec. 06, 2012 Rise Set
Actual Time 7:30 AM EST 4:56 PM EST
Civil Twilight 7:00 AM EST 5:27 PM EST
Nautical Twilight 6:26 AM EST 6:00 PM EST
Astronomical Twilight 5:53 AM EST 6:33 PM EST
Moon No Moon Rise 12:22 PM EST (12/6)
Length of Visible Light 10h 26m
Length of Day
9h 25m
Waning Gibbous, 49% of the Moon is Illuminated
Dec 6
Waning Gibbous
Dec 13
New
Dec 20
First Quarter
Dec 28
Full
Jan 4
Last Quarter

Hourly Weather History & Observations

Time (EST) Temp. Windchill Dew Point Humidity Pressure Visibility Wind Dir Wind Speed Gust Speed Precip Events Conditions
12:53 AM 26.1 °F - 21.0 °F 81% 30.37 in 10.0 mi Calm Calm - N/A   Clear
1:53 AM 25.0 °F - 19.9 °F 81% 30.36 in 10.0 mi Calm Calm - N/A   Clear
2:53 AM 26.1 °F - 21.0 °F 81% 30.36 in 10.0 mi Calm Calm - N/A   Clear
3:53 AM 27.0 °F 23.0 °F 19.9 °F 75% 30.34 in 10.0 mi ENE 3.5 mph - N/A   Clear
4:53 AM 25.0 °F 15.5 °F 19.9 °F 81% 30.32 in 10.0 mi ENE 9.2 mph - N/A   Clear
5:53 AM 25.0 °F 17.1 °F 19.9 °F 81% 30.32 in 10.0 mi East 6.9 mph - N/A   Clear
6:53 AM 24.1 °F 18.2 °F 19.0 °F 81% 30.33 in 10.0 mi East 4.6 mph - N/A   Clear
7:53 AM 26.1 °F 18.4 °F 19.9 °F 78% 30.31 in 10.0 mi ENE 6.9 mph - N/A   Clear
8:53 AM 28.0 °F 21.7 °F 21.0 °F 75% 30.29 in 10.0 mi East 5.8 mph - N/A   Clear
9:53 AM 30.9 °F 22.8 °F 23.0 °F 72% 30.28 in 10.0 mi ESE 9.2 mph - N/A   Clear
10:53 AM 35.1 °F 32.2 °F 25.0 °F 67% 30.26 in 10.0 mi Variable 3.5 mph - N/A   Clear
11:53 AM 37.9 °F 34.4 °F 25.0 °F 60% 30.21 in 10.0 mi ESE 4.6 mph - N/A   Clear
12:53 PM 42.1 °F 39.2 °F 26.1 °F 53% 30.17 in 10.0 mi East 4.6 mph - N/A   Clear
1:53 PM 45.0 °F 43.5 °F 26.1 °F 48% 30.14 in 10.0 mi East 3.5 mph - N/A   Clear
2:53 PM 46.0 °F 44.8 °F 27.0 °F 47% 30.13 in 10.0 mi ENE 3.5 mph - N/A   Clear
3:53 PM 45.0 °F 43.5 °F 26.1 °F 48% 30.12 in 10.0 mi East 3.5 mph - N/A   Clear
4:53 PM 42.1 °F 38.4 °F 26.1 °F 53% 30.11 in 10.0 mi ESE 5.8 mph - N/A   Clear
5:53 PM 41.0 °F 38.0 °F 26.1 °F 55% 30.11 in 10.0 mi ESE 4.6 mph - N/A   Clear
6:53 PM 39.0 °F 34.8 °F 26.1 °F 60% 30.10 in 10.0 mi ESE 5.8 mph - N/A   Clear
7:53 PM 41.0 °F - 26.1 °F 55% 30.10 in 10.0 mi Calm Calm - N/A   Clear
8:53 PM 42.1 °F - 27.0 °F 55% 30.09 in 10.0 mi Calm Calm - N/A   Mostly Cloudy
9:53 PM 43.0 °F 39.5 °F 28.0 °F 56% 30.07 in 10.0 mi South 5.8 mph - N/A   Overcast
10:51 PM 44.6 °F 42.2 °F 28.4 °F 53% 30.03 in 10.0 mi SSE 4.6 mph - N/A   Overcast
10:53 PM 44.1 °F 41.5 °F 28.9 °F 55% 30.06 in 10.0 mi SSE 4.6 mph - N/A   Overcast
11:13 PM 44.6 °F 42.2 °F 30.2 °F 57% 30.02 in 10.0 mi SSE 4.6 mph - N/A   Overcast
11:35 PM 44.6 °F 42.2 °F 30.2 °F 57% 30.02 in 10.0 mi SSE 4.6 mph - N/A   Overcast
11:53 PM 45.0 °F 43.5 °F 30.9 °F 58% 30.05 in 10.0 mi South 3.5 mph - N/A   Overcast